GW4014 Weather Reports


time (UTC)temp
C
wind
direction
speed
KPH
gust
KPH
rain 1hr
cm
rain 24hr
cm
rain mn
cm
humidity
%
barometer
mb
20260505054508 15 135 0.0 3.2 0.00 0.00 0.00 56 1012.0
20260505054008 16 56 1.6 3.2 0.00 0.00 0.00 56 1012.0
20260505053507 16 63 1.6 3.2 0.00 0.00 0.00 56 1012.0
20260505053008 16 50 0.0 1.6 0.00 0.00 0.00 55 1012.0
20260505052507 16 162 1.6 3.2 0.00 0.00 0.00 55 1012.0
20260505051545 16 56 0.0 1.6 0.00 0.00 0.00 55 1012.0
20260505051044 16 49 1.6 1.6 0.00 0.00 0.00 55 1012.0
20260505050332 16 82 3.2 3.2 0.00 0.00 0.00 55 1012.0
20260505041156 16 71 1.6 4.8 0.00 0.00 0.00 54 1012.0
20260505040656 16 90 0.0 1.6 0.00 0.00 0.00 54 1012.0
20260505040156 16 60 0.0 4.8 0.00 0.00 0.00 54 1012.0
20260505035657 16 52 0.0 3.2 0.00 0.00 0.00 54 1012.0
20260505035156 16 50 1.6 1.6 0.00 0.00 0.00 53 1012.0
20260505034656 16 56 0.0 3.2 0.00 0.00 0.00 54 1012.0
20260505034156 16 206 0.0 6.4 0.00 0.00 0.00 52 1012.0
20260505033657 16 51 0.0 3.2 0.00 0.00 0.00 53 1012.0
20260505033157 16 50 0.0 3.2 0.00 0.00 0.00 53 1012.0
20260505032655 16 90 0.0 3.2 0.00 0.00 0.00 52 1012.0
20260505032155 16 112 1.6 3.2 0.00 0.00 0.00 52 1012.0
20260505031443 16 64 1.6 1.6 0.00 0.00 0.00 51 1012.0
20260505030945 16 90 0.0 1.6 0.00 0.00 0.00 51 1012.0
20260505030443 16 142 1.6 3.2 0.00 0.00 0.00 51 1012.0
20260505025943 16 59 1.6 3.2 0.00 0.00 0.00 51 1012.0
20260505025444 16 72 1.6 3.2 0.00 0.00 0.00 50 1012.0
20260505024733 16 48 1.6 3.2 0.00 0.00 0.00 50 1012.0
20260505024232 17 111 1.6 1.6 0.00 0.00 0.00 50 1012.0
20260505023058 17 90 0.0 1.6 0.00 0.00 0.00 49 1012.0
20260505022558 17 74 1.6 3.2 0.00 0.00 0.00 49 1012.0
20260505022059 17 74 1.6 1.6 0.00 0.00 0.00 49 1012.0
20260505021559 17 90 1.6 3.2 0.00 0.00 0.00 48 1012.0
20260505021058 17 68 3.2 3.2 0.00 0.00 0.00 48 1012.0
20260505020347 18 57 3.2 3.2 0.00 0.00 0.00 47 1012.0
20260505015847 18 90 0.0 1.6 0.00 0.00 0.00 46 1012.0
20260505015136 18 90 0.0 1.6 0.00 0.00 0.00 46 1012.0
20260505014636 18 112 0.0 1.6 0.00 0.00 0.00 45 1012.0
20260505014134 18 70 1.6 1.6 0.00 0.00 0.00 46 1012.0
20260505013635 18 115 0.0 3.2 0.00 0.00 0.00 45 1012.0
20260505013134 18 56 0.0 3.2 0.00 0.00 0.00 45 1011.0
20260505012635 18 64 1.6 3.2 0.00 0.00 0.00 45 1011.0
20260505012134 18 144 1.6 1.6 0.00 0.00 0.00 44 1011.0
20260505011634 19 78 1.6 1.6 0.00 0.00 0.00 44 1011.0
20260505011135 19 90 0.0 1.6 0.00 0.00 0.00 44 1011.0
20260505010634 19 90 1.6 1.6 0.00 0.00 0.00 44 1012.0
20260505010134 19 133 0.0 1.6 0.00 0.00 0.00 43 1011.0
20260505005634 19 107 0.0 1.6 0.00 0.00 0.00 43 1011.0
20260505005134 20 113 0.0 1.6 0.00 0.00 0.00 42 1011.0
20260505004634 20 53 0.0 1.6 0.00 0.00 0.00 42 1011.0
20260505004135 20 43 0.0 3.2 0.00 0.00 0.00 42 1011.0
20260505003634 20 49 3.2 3.2 0.00 0.00 0.00 40 1011.0
20260505003134 20 90 0.0 1.6 0.00 0.00 0.00 40 1011.0
20260505002635 20 76 1.6 8.0 0.00 0.00 0.00 40 1011.0
20260505002134 20 90 0.0 3.2 0.00 0.00 0.00 40 1011.0
20260505000958 21 122 0.0 3.2 0.00 0.00 0.00 39 1011.0
20260505000458 21 54 1.6 3.2 0.00 0.00 0.00 39 1011.0
20260504235958 21 141 0.0 4.8 0.00 0.00 0.00 39 1011.0
20260504235459 21 69 1.6 4.8 0.00 0.00 0.00 39 1011.0
20260504234958 21 37 1.6 6.4 0.00 0.00 0.00 39 1011.0
20260504234459 21 105 1.6 8.0 0.00 0.00 0.00 39 1011.0
20260504233957 21 59 3.2 4.8 0.00 0.00 0.00 39 1011.0
20260504233459 21 120 3.2 11.3 0.00 0.00 0.00 38 1011.0
20260504232957 21 90 0.0 9.7 0.00 0.00 0.00 38 1011.0
20260504232245 21 110 8.0 12.9 0.00 0.00 0.00 37 1011.0
20260504231744 21 101 1.6 6.4 0.00 0.00 0.00 37 1011.0
20260504231245 21 74 1.6 9.7 0.00 0.00 0.00 36 1011.0
20260504230744 22 179 0.0 8.0 0.00 0.00 0.00 36 1011.0
20260504230244 22 76 3.2 4.8 0.00 0.00 0.00 35 1011.0
20260504225745 22 49 3.2 12.9 0.00 0.00 0.00 37 1011.0
20260504225244 22 114 3.2 8.0 0.00 0.00 0.00 35 1011.0
20260504224744 22 136 1.6 11.3 0.00 0.00 0.00 35 1011.0
20260504224031 22 100 4.8 9.7 0.00 0.00 0.00 35 1011.0
20260504223531 22 134 3.2 16.1 0.00 0.00 0.00 34 1011.0
20260504222819 22 3 6.4 14.5 0.00 0.00 0.00 33 1011.0
20260504222318 22 98 3.2 20.9 0.00 0.00 0.00 33 1011.0
20260504221818 22 118 3.2 14.5 0.00 0.00 0.00 33 1011.0
20260504221318 22 323 1.6 12.9 0.00 0.00 0.00 33 1011.0
20260504220818 22 49 1.6 12.9 0.00 0.00 0.00 34 1011.0
20260504220319 22 65 3.2 8.0 0.00 0.00 0.00 33 1011.0
20260504215818 23 130 4.8 11.3 0.00 0.00 0.00 32 1011.0
20260504215320 23 74 1.6 6.4 0.00 0.00 0.00 34 1011.0
20260504214820 24 106 1.6 8.0 0.00 0.00 0.00 30 1011.0
20260504214318 24 90 0.0 6.4 0.00 0.00 0.00 31 1011.0
20260504213818 23 192 1.6 14.5 0.00 0.00 0.00 32 1011.0
20260504213108 23 26 3.2 11.3 0.00 0.00 0.00 32 1011.0
20260504212607 23 76 1.6 14.5 0.00 0.00 0.00 33 1011.0
20260504212107 23 116 4.8 6.4 0.00 0.00 0.00 33 1011.0
20260504211607 23 234 1.6 1.6 0.00 0.00 0.00 33 1011.0
20260504210218 23 337 3.2 8.0 0.00 0.00 0.00 35 1011.0
20260504205718 23 254 0.0 11.3 0.00 0.00 0.00 32 1011.0
20260504205218 23 188 6.4 8.0 0.00 0.00 0.00 32 1011.0
20260504204717 23 30 1.6 20.9 0.00 0.00 0.00 33 1011.0
20260504204217 23 42 0.0 8.0 0.00 0.00 0.00 32 1011.0
20260504203505 23 279 0.0 11.3 0.00 0.00 0.00 31 1011.0
20260504202543 23 29 1.6 9.7 0.00 0.00 0.00 32 1011.0
20260504202044 23 83 4.8 12.9 0.00 0.00 0.00 31 1011.0
20260504201543 23 60 4.8 8.0 0.00 0.00 0.00 32 1011.0
20260504201044 24 84 8.0 11.3 0.00 0.00 0.00 30 1011.0
20260504200545 25 60 3.2 9.7 0.00 0.00 0.00 31 1011.0
20260504200043 25 90 0.0 12.9 0.00 0.00 0.00 30 1011.0
20260504195544 25 50 3.2 12.9 0.00 0.00 0.00 30 1012.0
20260504195043 26 179 0.0 9.7 0.00 0.00 0.00 29 1012.0
20260504194331 26 109 8.0 9.7 0.00 0.00 0.00 30 1012.0
20260504193620 27 17 1.6 8.0 0.00 0.00 0.00 28 1012.0
20260504193121 27 59 6.4 8.0 0.00 0.00 0.00 30 1012.0
20260504192410 27 111 3.2 8.0 0.00 0.00 0.00 26 1012.0
20260504191910 27 64 0.0 11.3 0.00 0.00 0.00 27 1012.0
20260504191408 27 254 1.6 8.0 0.00 0.00 0.00 26 1012.0
20260504190910 27 334 1.6 6.4 0.00 0.00 0.00 30 1013.0
20260504190408 26 130 0.0 9.7 0.00 0.00 0.00 28 1012.0
20260504185908 26 0 4.8 9.7 0.00 0.00 0.00 27 1013.0
20260504185408 26 283 1.6 9.7 0.00 0.00 0.00 27 1013.0
20260504184908 26 118 0.0 6.4 0.00 0.00 0.00 28 1013.0
20260504184408 27 79 3.2 8.0 0.00 0.00 0.00 27 1013.0
20260504183909 26 53 3.2 12.9 0.00 0.00 0.00 28 1013.0
20260504183408 26 94 4.8 9.7 0.00 0.00 0.00 28 1013.0
20260504182909 26 287 0.0 11.3 0.00 0.00 0.00 28 1013.0
20260504182408 26 49 4.8 11.3 0.00 0.00 0.00 28 1013.0
20260504181908 26 130 1.6 12.9 0.00 0.00 0.00 28 1013.0
20260504181408 26 188 0.0 12.9 0.00 0.00 0.00 27 1013.0
20260504180909 26 71 3.2 11.3 0.00 0.00 0.00 27 1013.0
20260504180408 25 58 4.8 11.3 0.00 0.00 0.00 27 1013.0
20260504175909 25 75 4.8 14.5 0.00 0.00 0.00 26 1013.0
20260504175409 26 147 1.6 11.3 0.00 0.00 0.00 25 1013.0
20260504174908 26 90 1.6 12.9 0.00 0.00 0.00 25 1013.0
20260504174408 26 72 1.6 8.0 0.00 0.00 0.00 26 1013.0
20260504173908 25 97 6.4 12.9 0.00 0.00 0.00 24 1013.0
20260504173409 26 254 0.0 8.0 0.00 0.00 0.00 27 1014.0
20260504172908 25 46 1.6 9.7 0.00 0.00 0.00 25 1014.0
20260504172158 25 31 4.8 11.3 0.00 0.00 0.00 26 1014.0
20260504171657 25 15 8.0 20.9 0.00 0.00 0.00 24 1014.0
20260504171157 25 73 1.6 8.0 0.00 0.00 0.00 26 1014.0
20260504170657 25 59 1.6 9.7 0.00 0.00 0.00 26 1014.0
20260504160233 23 8 1.6 12.9 0.00 0.00 0.00 29 1015.0
20260504151058 21 106 3.2 4.8 0.00 0.00 0.00 31 1015.0
20260504150558 20 127 1.6 6.4 0.00 0.00 0.00 33 1015.0
20260504141134 16 74 1.6 8.0 0.00 0.00 0.00 43 1015.0
20260504140633 16 197 1.6 6.4 0.00 0.00 0.00 44 1015.0
20260504140133 15 63 4.8 9.7 0.00 0.00 0.00 44 1015.0
20260504130422 12 77 9.7 11.3 0.00 0.00 0.00 52 1015.0
20260504110110 8 143 1.6 3.2 0.00 0.00 0.00 66 1016.0
20260504100358 8 132 1.6 3.2 0.00 0.00 0.00 68 1016.0
20260504081933 8 131 0.0 1.6 0.00 0.00 0.00 66 1016.0
20260504081433 8 90 0.0 1.6 0.00 0.00 0.00 65 1016.0
20260504080933 8 90 0.0 1.6 0.00 0.00 0.00 64 1016.0
20260504080433 9 107 1.6 1.6 0.00 0.00 0.00 63 1016.0
20260504070221 8 90 0.0 1.6 0.00 0.00 0.00 63 1016.0